IRIDIUM 171

Last updated on Sun Jun 21 2026 00:03:14 GMT+0000 (Coordinated Universal Time)

1 43929U 19002H 26171.44045036 .00000007 00000+0 -46740-5 0 9995 2 43929 86.3975 352.5178 0001930 91.8050 268.3367 14.34217480389429
UTC large
Height (km)
Speed (km/s)
/
Latitude / Longitude
Inclination (degrees)
Orbital Period (minutes)
Azimuth
Elevation
Range (km)
Doppler Factor

Next 0 passes for location: London (51.5072 / 0.1276)

No passes found over London.
IRIDIUM 171